Alpena, MI

3:31 AM EST on February 12, 2016 (GMT -0500)
Alpena County Regional

Weather History for KAPN - January, 2013

Change the Weather History Date:

Saturday, January 19, 2013

  Actual Average Record
Temperature  
Mean Temperature 34 °F 19 °F  
Max Temperature 37 °F 26 °F 51 °F (1947)
Min Temperature 31 °F 11 °F -20 °F (1962)
Degree Days  
Heating Degree Days 31 46  
Month to date heating degree days 702 863  
Since 1 July heating degree days 3478 3924  
Moisture  
Dew Point 29 °F    
Average Humidity 84    
Maximum Humidity 96    
Minimum Humidity 72    
Precipitation  
Precipitation 0.17 in 0.06 in 0.97 in (1949)
Month to date precipitation 1.13 1.09  
Year to date precipitation 1.13 1.09  
Snow  
Snow T in 0.70 in 4.80 in (1931)
Month to date snowfall 1.2 13.3  
Since 1 July snowfall 14.9 40.6  
Snow Depth 1.00 in    
Sea Level Pressure  
Sea Level Pressure 29.64 in    
Wind  
Wind Speed 7 mph (SSW)    
Max Wind Speed 28 mph    
Max Gust Speed 39 mph    
Visibility 6 miles    
Events Fog , Rain , Snow    
T = Trace of Precipitation, MM = Missing Value Source: NWS Daily Summary

Daily Weather History Graph

Daily Weather History Graph

Search for Another Location

Airport or City:

Trip Planner

Search our weather history database for the weather conditions in past years. The results will help you decide how hot, cold, wet, or windy it might be!

Date:

Astronomy

Jan. 19, 2013 Rise Set
Actual Time 8:06 AM EST 5:24 PM EST
Civil Twilight 7:33 AM EST 5:56 PM EST
Nautical Twilight 6:57 AM EST 6:32 PM EST
Astronomical Twilight 6:22 AM EST 7:07 PM EST
Moon 11:53 AM EST (1/19) 1:35 AM EST (1/19)
Length of Visible Light 10h 22m
Length of Day
9h 17m
First Quarter, 57% of the Moon is Illuminated
Jan 19
First Quarter
Jan 26
Full
Feb 3
Last Quarter
Feb 10
New
Feb 17
First Quarter

Hourly Weather History & Observations

Time (EST) Temp. Windchill Dew Point Humidity Pressure Visibility Wind Dir Wind Speed Gust Speed Precip Events Conditions
12:54 AM 33.1 °F 23.9 °F 26.1 °F 75% 29.74 in 10.0 mi SSW 12.7 mph - N/A   Scattered Clouds
1:54 AM 34.0 °F 29.8 °F 27.0 °F 75% 29.75 in 10.0 mi WSW 4.6 mph - N/A   Mostly Cloudy
2:13 AM 33.8 °F 29.6 °F 26.6 °F 75% 29.72 in 10.0 mi WSW 4.6 mph - N/A   Overcast
2:54 AM 35.1 °F 30.1 °F 28.0 °F 76% 29.76 in 10.0 mi SW 5.8 mph - N/A   Overcast
3:54 AM 35.1 °F 32.2 °F 28.0 °F 76% 29.75 in 10.0 mi West 3.5 mph - N/A   Overcast
4:54 AM 32.0 °F 25.6 °F 28.0 °F 85% 29.77 in 9.0 mi NNW 6.9 mph - N/A   Overcast
5:54 AM 30.9 °F 27.5 °F 28.0 °F 89% 29.78 in 6.0 mi NW 3.5 mph - N/A   Overcast
6:54 AM 30.9 °F - 28.0 °F 89% 29.79 in 7.0 mi Calm Calm - N/A   Overcast
7:54 AM 30.9 °F - 27.0 °F 85% 29.82 in 8.0 mi Calm Calm - N/A   Overcast
8:12 AM 30.2 °F 26.7 °F 26.6 °F 86% 29.79 in 8.0 mi West 3.5 mph - N/A   Overcast
8:34 AM 30.2 °F - 26.6 °F 86% 29.79 in 7.0 mi Calm Calm - N/A   Overcast
8:54 AM 30.9 °F 27.5 °F 25.0 °F 79% 29.84 in 6.0 mi WNW 3.5 mph - N/A   Haze
9:54 AM 30.9 °F - 26.1 °F 82% 29.83 in 6.0 mi Calm Calm - N/A   Haze
10:02 AM 30.2 °F - 26.6 °F 86% 29.80 in 7.0 mi Calm Calm - N/A   Overcast
10:33 AM 32.0 °F - 26.6 °F 80% 29.81 in 6.0 mi Calm Calm - N/A   Haze
10:54 AM 30.9 °F - 26.1 °F 82% 29.82 in 6.0 mi Calm Calm - N/A   Haze
11:07 AM 30.2 °F 26.7 °F 26.6 °F 86% 29.78 in 6.0 mi SE 3.5 mph - N/A   Haze
11:24 AM 32.0 °F - 26.6 °F 80% 29.77 in 6.0 mi Calm Calm - N/A   Haze
11:40 AM 32.0 °F - 26.6 °F 80% 29.76 in 6.0 mi Calm Calm - N/A   Haze
11:54 AM 33.1 °F 26.1 °F 27.0 °F 78% 29.77 in 5.0 mi SE 8.1 mph - N/A   Haze
12:14 PM 32.0 °F 24.8 °F 28.4 °F 87% 29.74 in 1.8 mi SE 8.1 mph - 0.00 in Snow Light Snow
12:31 PM 32.0 °F 25.6 °F 28.4 °F 87% 29.73 in 0.5 mi SE 6.9 mph - 0.00 in Fog , Snow Snow
12:54 PM 30.9 °F 23.5 °F 28.9 °F 92% 29.74 in 0.5 mi SSE 8.1 mph - 0.01 in Fog , Snow Snow
1:09 PM 30.2 °F 23.4 °F 28.4 °F 93% 29.70 in 0.5 mi SE 6.9 mph - 0.02 in Fog , Snow Snow
1:18 PM 30.2 °F 23.4 °F 28.4 °F 93% 29.70 in 0.5 mi SE 6.9 mph - 0.03 in Fog , Snow Snow
1:27 PM 30.2 °F 24.3 °F 28.4 °F 93% 29.69 in 0.5 mi SE 5.8 mph - 0.03 in Fog , Snow Snow
1:54 PM 32.0 °F 26.4 °F 30.0 °F 92% 29.68 in 0.5 mi SE 5.8 mph - 0.06 in Fog , Snow Snow
2:43 PM 32.0 °F 26.4 °F 30.2 °F 93% 29.61 in 1.0 mi SE 5.8 mph - 0.02 in Snow Light Snow
2:54 PM 32.0 °F 26.4 °F 30.9 °F 96% 29.63 in 1.2 mi SSE 5.8 mph - 0.03 in Snow Light Snow
3:44 PM 33.8 °F 28.6 °F 32.0 °F 93% 29.57 in 2.0 mi SSE 5.8 mph - 0.03 in Rain Light Rain
3:54 PM 33.1 °F 27.7 °F 32.0 °F 96% 29.60 in 2.0 mi South 5.8 mph - 0.03 in Rain Light Rain
4:21 PM 35.6 °F 29.2 °F 33.8 °F 93% 29.55 in 5.0 mi South 8.1 mph - 0.00 in   Overcast
4:54 PM 36.0 °F 27.5 °F 33.1 °F 89% 29.55 in 6.0 mi South 12.7 mph - 0.00 in   Overcast
5:37 PM 35.6 °F 28.0 °F 33.8 °F 93% 29.50 in 7.0 mi SSW 10.4 mph - N/A   Overcast
5:54 PM 36.0 °F 27.1 °F 33.1 °F 89% 29.52 in 8.0 mi SSW 13.8 mph - N/A   Overcast
6:54 PM 37.0 °F 29.3 °F 33.1 °F 86% 29.49 in 8.0 mi SSW 11.5 mph - N/A   Overcast
7:50 PM 37.4 °F 29.8 °F 33.8 °F 87% 29.43 in 8.0 mi SW 11.5 mph 21.9 mph 0.00 in Rain Light Rain
7:54 PM 37.0 °F 29.3 °F 33.1 °F 86% 29.46 in 8.0 mi SW 11.5 mph 21.9 mph 0.00 in   Overcast
8:09 PM 37.4 °F 28.9 °F 33.8 °F 87% 29.43 in 8.0 mi SW 13.8 mph 20.7 mph 0.00 in Rain Light Rain
8:41 PM 37.4 °F 29.3 °F 33.8 °F 87% 29.41 in 9.0 mi SW 12.7 mph 21.9 mph 0.01 in   Overcast
8:54 PM 37.0 °F 28.5 °F 33.1 °F 86% 29.42 in 9.0 mi SW 13.8 mph 21.9 mph 0.01 in   Overcast
9:54 PM 37.0 °F 28.9 °F 33.1 °F 86% 29.39 in 9.0 mi SW 12.7 mph 24.2 mph 0.00 in   Overcast
10:22 PM 35.6 °F 23.4 °F 33.8 °F 93% 29.39 in 2.5 mi West 25.3 mph 39.1 mph 0.00 in Rain Heavy Rain
10:30 PM 33.8 °F 23.5 °F 30.2 °F 87% 29.40 in 1.2 mi WNW 16.1 mph 39.1 mph 0.02 in Snow Light Snow
10:37 PM 33.8 °F 24.8 °F 30.2 °F 87% 29.39 in 1.5 mi WNW 12.7 mph 26.5 mph 0.02 in Snow Light Snow
10:41 PM 33.8 °F 24.3 °F 30.2 °F 87% 29.39 in 3.0 mi West 13.8 mph 23.0 mph 0.02 in Snow Light Snow
10:54 PM 33.1 °F 26.9 °F 30.0 °F 89% 29.42 in 9.0 mi West 6.9 mph 16.1 mph 0.03 in   Overcast
11:54 PM 33.1 °F 24.4 °F 28.0 °F 82% 29.39 in 10.0 mi West 11.5 mph 21.9 mph N/A   Overcast